Location: Unspecified
(48.8656°N, 0.0000°E)
Time: 07:24:12
(UTC+00:00)

SR - Pass Details

Date: 26 June 2019
Orbit: 580 x 876 km, 66.7° (Epoch: 20 July)

Event Time Altitude Azimuth Distance (km) Brightness Sun altitude
Rises 01:33:07 0° 164° (SSE) 2,788 - -15.0°
Exits shadow 01:35:42 - 145° (SE) 2,014 ? -14.8°
Reaches altitude 10° 01:36:14 10° 139° (SE) 1,894 ? -14.8°
Maximum altitude 01:38:28 14° 107° (ESE) 1,653 ? -14.7°
Drops below altitude 10° 01:40:43 10° 75° (ENE) 1,924 ? -14.5°
Sets 01:43:55 0° 51° (NE) 2,865 ? -14.3°
